[[{"header":{"parameterUnit":"m.s-1","parameterCategory":1,"la1":30.2991,"la2":30.254,"lo1":-89.0895,"lo2":-89.0444,"dy":0.0017,"dx":0.0017,"nx":28,"ny":28,"refTime":"2024-10-16T09:00:00:Z","depth":0,"parameterNumber":2,"parameterNumberName":"U-component_of_WINDS"},"data":[0,0,0,0,0,0,0,0,0,0,0,0,0,0,0,0,0,0,0,0,0,0,0,0,0,0,0,0,0,0,0,0,0,0,0,0,0,0,0,0,0,0,0,0,0,0,0,0,0,0,0,0,0,0,0,0,0,0,-4.1576,-4.1576,0,-4.1603,-4.1603,-4.1603,-4.1432,-4.1427,-4.1423,-4.1418,-4.1447,-4.1452,-4.1457,0,0,0,0,0,0,0,0,0,0,0,0,0,-4.1376,-4.138,-4.1576,-4.1576,-4.1576,-4.1603,-4.1603,-4.1604,-4.1433,-4.1427,-4.1421,-4.1416,-4.1445,-4.1451,-4.1458,0,0,0,0,0,0,0,0,0,0,0,0,0,-4.1439,-4.1382,-4.1576,-4.1495,-4.1487,-4.1603,-4.1603,-4.1604,-4.1434,-4.1427,-4.142,-4.1413,-4.1443,-4.1451,-4.1459,-4.1653,0,0,-4.1483,-4.1486,0,0,0,0,0,0,0,0,-4.1436,-4.1446,-4.1506,-4.15,-4.1493,-4.1507,-4.1543,-4.162,-4.1436,-4.1455,-4.1418,-4.1409,-4.1473,-4.1478,-4.1499,-4.1655,-4.1656,-4.1484,-4.1488,-4.1492,-4.1494,0,0,0,0,0,0,0,-4.1431,-4.1444,-4.1586,-4.1507,-4.1499,-4.1457,-4.1457,-4.1557,-4.1504,-4.1452,-4.144,-4.1446,-4.1468,-4.1492,-4.1498,-4.1656,-4.1483,-4.149,-4.1495,-4.1498,-4.1972,-4.1979,0,0,0,0,0,0,-4.1438,-4.1442,-4.1585,-4.1587,-4.1446,-4.1466,-4.1467,-4.151,-4.1503,-4.1495,-4.1452,-4.1438,-4.1482,-4.1489,-4.1499,-4.1726,-4.1492,-4.1499,-4.1504,-4.1964,-4.1974,-4.1982,0,0,0,0,0,0,-4.1434,-4.1452,-4.1584,-4.1511,-4.1525,-4.1477,-4.1526,-4.1514,-4.1538,-4.1502,-4.1492,-4.1486,-4.1476,-4.1487,-4.1616,-4.1725,-4.1503,-4.151,-4.1955,-4.1967,-4.1978,-4.2183,0,0,0,0,0,0,-4.1429,-4.1452,-4.1526,-4.1514,-4.1529,-4.1702,-4.1533,-4.152,-4.1552,-4.1533,-4.1532,-4.1524,-4.1471,-4.1605,-4.1624,-4.1732,-4.1516,-4.1945,-4.196,-4.1974,-4.2166,-4.22,-4.2229,0,0,0,0,0,-4.1423,-4.1583,-4.1531,-4.1549,-4.1621,-4.1709,-4.1717,-4.1653,-4.1561,-4.1635,-4.1612,-4.1524,-4.1709,-4.162,-4.1639,-4.1751,-4.1938,-4.1956,-4.1973,-4.2152,-4.2194,-4.2229,0,0,0,0,0,0,-4.161,-4.158,-4.1522,-4.1683,-4.17,-4.168,-4.1771,-4.1699,-4.1742,-4.1724,-4.1641,-4.1643,-4.1785,-4.178,-4.1681,-4.1939,-4.1808,-4.183,-4.1937,-4.1976,-4.2007,-4.2006,-4.1523,0,0,0,0,0,-4.167,-4.1744,-4.1713,-4.1859,-4.187,-4.182,-4.1855,-4.1804,-4.1818,-4.1825,-4.1811,-4.1828,-4.1889,-4.1932,-4.1987,-4.2164,-4.2161,-4.225,-4.2282,-4.2308,-4.2329,-4.2422,-4.2461,-4.204,-4.204,-4.204,0,0,-4.1795,-4.1787,-4.1839,-4.1896,-4.1903,-4.1981,-4.1827,-4.1916,-4.1974,-4.1838,-4.1959,-4.1949,-4.1963,-4.2116,-4.2183,-4.2117,-4.2444,-4.233,-4.2352,-4.2358,-4.2444,-4.2484,-4.252,-4.2052,-4.205,-4.2048,0,0,-4.2062,-4.2064,-4.2185,-4.2195,-4.2207,-4.2172,-4.2201,-4.2192,-4.218,-4.2299,-4.2199,-4.2266,-4.2374,-4.2388,-4.2409,-4.268,-4.2601,-4.27,-4.2865,-4.2957,-4.299,-4.3019,-4.3117,-4.3152,-4.272,-4.2721,-4.2721,0,-4.2216,-4.233,-4.2257,-4.2353,-4.2381,-4.226,-4.2382,-4.2395,-4.2425,-4.2447,-4.2372,-4.2504,-4.2505,-4.266,-4.2726,-4.2747,-4.2778,-4.2701,-4.2991,-4.302,-4.3046,-4.3138,-4.3174,-4.2733,-4.2732,-4.273,-4.2729,0,-4.2519,-4.26,-4.2696,-4.2727,-4.2765,-4.2874,-4.2817,-4.2864,-4.2809,-4.2782,-4.2905,-4.2901,-4.2953,-4.2985,-4.2932,-4.3133,-4.3091,-4.3005,-4.2872,-4.3099,-4.3184,-4.3219,-4.275,-4.2746,-4.2742,-4.2739,0,0,-4.2908,-4.2895,-4.2932,-4.2945,-4.2948,-4.3009,-4.3112,-4.3161,-4.3204,-4.3228,-4.3312,-4.3406,-4.3325,-4.335,-4.3297,-4.3377,-4.3593,-4.3281,-4.328,-4.334,-4.3814,-4.388,-4.3922,-4.354,-4.3546,-4.3551,-4.3813,0,-4.317,-4.3345,-4.3281,-4.3461,-4.3534,-4.342,-4.3509,-4.3521,-4.3498,-4.3556,-4.353,-4.3598,-4.3487,-4.3501,-4.3575,-4.3551,-4.3687,-4.3531,-4.3618,-4.3622,-4.362,-4.3966,-4.4036,-4.4283,-4.3845,-4.3851,-4.3855,0,-4.35,-4.3537,-4.3724,-4.3714,-4.3742,-4.3824,-4.3864,-4.3921,-4.3932,-4.3909,-4.3936,-4.3865,-4.3965,-4.3831,-4.3967,-4.3862,-4.3893,-4.3887,-4.3895,-4.3902,-4.3754,-4.3983,-4.4361,-4.4398,-4.3906,-4.3902,-4.3899,0,-4.3766,-4.3862,-4.3986,-4.4,-4.3991,-4.4051,-4.405,-4.4053,-4.4087,-4.4122,-4.4143,-4.4189,-4.4215,-4.4252,-4.4196,-4.4104,-4.4341,-4.4202,-4.4325,-4.4327,-4.4382,-4.438,-4.4771,-4.44,-4.44,-4.4399,-4.4398,0,-4.4067,-4.4186,-4.4105,-4.4182,-4.4312,-4.4236,-4.4366,-4.4352,-4.4356,-4.4428,-4.4331,-4.44,-4.4321,-4.4383,-4.4339,-4.4459,-4.4471,-4.4455,-4.4443,-4.4465,-4.4467,-4.4486,-4.4468,-4.4409,-4.4407,-4.4405,-4.4403,0,-4.4387,-4.4338,-4.4466,-4.4446,-4.4444,-4.454,-4.4523,-4.4593,-4.4562,-4.4654,-4.4671,-4.4623,-4.4691,-4.4637,-4.4704,-4.4674,-4.4832,-4.4795,-4.4829,-4.482,-4.4946,-4.4936,-4.5364,-4.5417,-4.5012,-4.5016,-4.5019,0,-4.4583,-4.4672,-4.4661,-4.4702,-4.4707,-4.4774,-4.4808,-4.4736,-4.4775,-4.4793,-4.4861,-4.492,-4.4963,-4.5076,-4.5047,-4.5097,-4.5061,-4.5207,-4.5068,-4.5087,-4.5064,-4.506,-4.5068,-4.5237,-4.5241,-4.5245,-4.5248,0,-4.4936,-4.4907,-4.4959,-4.5003,-4.5046,-4.5077,-4.51,-4.5139,-4.5066,-4.5114,-4.5182,-4.5216,-4.5282,-4.5343,-4.5382,-4.538,-4.5304,-4.5292,-4.5323,-4.5348,-4.5365,-4.5358,-4.4908,-4.5283,-4.528,-4.5277,-4.5275,-4.5274,-4.52,-4.5274,-4.5278,-4.5339,-4.5348,-4.5372,-4.5437,-4.5413,-4.5468,-4.5517,-4.5471,-4.5553,-4.5559,-4.5604,-4.5612,-4.5675,-4.5614,-4.5659,-4.5671,-4.5684,-4.5702,-4.5354,-4.5681,-4.568,-4.5679,-4.5678,-4.5678,0,-4.5549,-4.5545,-4.5602,-4.5638,-4.5686,-4.5607,-4.5628,-4.5674,-4.5747,-4.5759,-4.5804,-4.5881,-4.5938,-4.5913,-4.5963,-4.6018,-4.5984,-4.6034,-4.603,-4.6031,-4.5753,-4.5722,-4.6061,-4.6061,-4.6061,-4.6061,-4.606,-4.606,-4.5736,-4.5856,-4.5827,-4.5951,-4.5946,-4.6025,-4.6044,-4.6065,-4.6074,-4.6165,-4.6212,-4.6195,-4.6192,-4.6241,-4.629,-4.6281,-4.6304,-4.6368,-4.6346,-4.6088,-4.605,-4.6014,-4.5984,-4.6373,-4.6373,-4.6618,-4.662,-4.6622]},{"header":{"parameterUnit":"m.s-1","parameterCategory":1,"la1":30.2991,"la2":30.254,"lo1":-89.0895,"lo2":-89.0444,"dy":0.0017,"dx":0.0017,"nx":28,"ny":28,"refTime":"2024-10-16T09:00:00:Z","depth":0,"parameterNumber":3,"parameterNumberName":"V-component_of_WINDS"},"data":[0,0,0,0,0,0,0,0,0,0,0,0,0,0,0,0,0,0,0,0,0,0,0,0,0,0,0,0,0,0,0,0,0,0,0,0,0,0,0,0,0,0,0,0,0,0,0,0,0,0,0,0,0,0,0,0,0,0,-6.6363,-6.6364,0,-6.6425,-6.6426,-6.6426,-6.6303,-6.6299,-6.6295,-6.6291,-6.635,-6.6355,-6.636,0,0,0,0,0,0,0,0,0,0,0,0,0,-6.6131,-6.6136,-6.6363,-6.6364,-6.6364,-6.6425,-6.6426,-6.6427,-6.6303,-6.6299,-6.6294,-6.6289,-6.6348,-6.6354,-6.6361,0,0,0,0,0,0,0,0,0,0,0,0,0,-6.6216,-6.6138,-6.6363,-6.631,-6.6306,-6.6425,-6.6426,-6.6427,-6.6304,-6.6298,-6.6292,-6.6287,-6.6346,-6.6354,-6.6362,-6.6532,0,0,-6.6386,-6.6389,0,0,0,0,0,0,0,0,-6.6212,-6.6225,-6.6317,-6.6314,-6.631,-6.635,-6.6365,-6.6462,-6.6306,-6.6305,-6.6291,-6.6284,-6.6354,-6.6361,-6.6386,-6.6535,-6.6538,-6.6387,-6.6392,-6.6395,-6.6397,0,0,0,0,0,0,0,-6.6206,-6.6221,-6.6387,-6.6319,-6.6314,-6.6282,-6.6287,-6.6383,-6.6363,-6.6305,-6.6296,-6.6305,-6.6351,-6.6379,-6.6387,-6.6538,-6.6386,-6.6394,-6.6399,-6.6402,-6.6828,-6.6834,0,0,0,0,0,0,-6.6207,-6.6217,-6.6385,-6.6389,-6.6245,-6.6291,-6.6297,-6.6343,-6.6361,-6.6358,-6.631,-6.6299,-6.6368,-6.6377,-6.6388,-6.6588,-6.6395,-6.6402,-6.6407,-6.6821,-6.6829,-6.6836,0,0,0,0,0,0,-6.6203,-6.6223,-6.6383,-6.6301,-6.6319,-6.6301,-6.6354,-6.6348,-6.6375,-6.6366,-6.6361,-6.6343,-6.6364,-6.6377,-6.6497,-6.6588,-6.6406,-6.6413,-6.6813,-6.6824,-6.6833,-6.6989,0,0,0,0,0,0,-6.6197,-6.6223,-6.6289,-6.6303,-6.6324,-6.6493,-6.636,-6.6353,-6.639,-6.6376,-6.6395,-6.6392,-6.636,-6.6486,-6.6505,-6.6596,-6.642,-6.6805,-6.6818,-6.6829,-6.6976,-6.7003,-6.7026,0,0,0,0,0,-6.6189,-6.633,-6.6293,-6.6314,-6.6407,-6.6499,-6.651,-6.6471,-6.6398,-6.6463,-6.6457,-6.6391,-6.6575,-6.6499,-6.652,-6.6614,-6.6799,-6.6814,-6.6829,-6.6964,-6.6998,-6.7026,0,0,0,0,0,0,-6.6325,-6.6331,-6.629,-6.6441,-6.647,-6.6478,-6.6559,-6.6508,-6.6558,-6.6543,-6.6491,-6.6496,-6.6626,-6.6632,-6.6547,-6.6779,-6.6674,-6.6694,-6.6771,-6.6802,-6.6827,-6.6822,-6.6426,0,0,0,0,0,-6.6373,-6.645,-6.6449,-6.6582,-6.6599,-6.6577,-6.6616,-6.6583,-6.6611,-6.6623,-6.6625,-6.6653,-6.6717,-6.676,-6.6818,-6.6976,-6.6977,-6.7051,-6.7076,-6.7097,-6.7114,-6.7196,-6.7228,-6.6884,-6.6884,-6.6884,0,0,-6.6472,-6.6485,-6.6536,-6.661,-6.6629,-6.6707,-6.6588,-6.6676,-6.6733,-6.6635,-6.6749,-6.6752,-6.678,-6.6919,-6.6981,-6.6928,-6.7209,-6.7116,-6.7133,-6.7138,-6.7214,-6.7247,-6.7276,-6.6894,-6.6892,-6.6891,0,0,-6.6693,-6.6711,-6.6822,-6.6844,-6.6875,-6.6859,-6.6886,-6.6901,-6.69,-6.7013,-6.6941,-6.7007,-6.7118,-6.714,-6.7166,-6.7394,-6.7335,-6.7414,-6.7546,-6.7626,-6.7653,-6.7677,-6.7757,-6.7786,-6.7431,-6.7432,-6.7432,0,-6.6811,-6.6928,-6.6886,-6.6979,-6.7012,-6.6929,-6.704,-6.7062,-6.7111,-6.7134,-6.7075,-6.7212,-6.7225,-6.7368,-6.7423,-6.7448,-6.7475,-6.7411,-6.7653,-6.7677,-6.7698,-6.7773,-6.7803,-6.7441,-6.744,-6.7439,-6.7438,0,-6.7071,-6.7153,-6.7239,-6.7289,-6.7332,-6.7434,-6.7405,-6.7453,-6.7417,-6.7406,-6.7522,-6.7534,-6.7593,-6.7624,-6.759,-6.7762,-6.7728,-6.7662,-6.7556,-6.7741,-6.781,-6.7839,-6.7454,-6.7451,-6.7448,-6.7446,0,0,-6.738,-6.7404,-6.7436,-6.7457,-6.7485,-6.7546,-6.7642,-6.7701,-6.7742,-6.7778,-6.7856,-6.7952,-6.7891,-6.792,-6.7887,-6.7958,-6.8135,-6.7883,-6.7882,-6.7928,-6.8323,-6.8371,-6.8406,-6.8096,-6.8102,-6.8106,-6.832,0,-6.7597,-6.7765,-6.7729,-6.7894,-6.7967,-6.7888,-6.7972,-6.7997,-6.799,-6.8049,-6.804,-6.8108,-6.8023,-6.804,-6.8107,-6.8099,-6.8213,-6.8083,-6.8166,-6.817,-6.8161,-6.8442,-6.8494,-6.8696,-6.8347,-6.8352,-6.8355,0,-6.7873,-6.792,-6.8092,-6.8106,-6.8135,-6.8212,-6.8261,-6.832,-6.8346,-6.8335,-6.8368,-6.8321,-6.8414,-6.8307,-6.8434,-6.8347,-6.8378,-6.8379,-6.8386,-6.8391,-6.8273,-6.8454,-6.8759,-6.8789,-6.8398,-6.8394,-6.8391,0,-6.8078,-6.8185,-6.8301,-6.8321,-6.8341,-6.8396,-6.8406,-6.8426,-6.8463,-6.8506,-6.8528,-6.8582,-6.861,-6.8651,-6.8618,-6.8544,-6.875,-6.8641,-6.8742,-6.8743,-6.8788,-6.8785,-6.9101,-6.8811,-6.881,-6.881,-6.8809,0,-6.8324,-6.8432,-6.8393,-6.8465,-6.8582,-6.8539,-6.8656,-6.8657,-6.8675,-6.8743,-6.8678,-6.8743,-6.8697,-6.8757,-6.8732,-6.884,-6.8853,-6.8846,-6.8838,-6.8851,-6.8852,-6.887,-6.8855,-6.8818,-6.8816,-6.8814,-6.8813,0,-6.8573,-6.8552,-6.8673,-6.8682,-6.8687,-6.8773,-6.8779,-6.8844,-6.8832,-6.8919,-6.8937,-6.8917,-6.8985,-6.8957,-6.9028,-6.9011,-6.9148,-6.9122,-6.9141,-6.9133,-6.9235,-6.9225,-6.9573,-6.9615,-6.9299,-6.9302,-6.9305,0,-6.8731,-6.8812,-6.883,-6.8872,-6.8887,-6.8956,-6.8993,-6.8953,-6.8994,-6.9028,-6.9089,-6.9151,-6.9199,-6.9311,-6.9302,-6.9355,-6.9329,-6.9447,-6.9337,-6.9347,-6.9329,-6.9324,-6.9331,-6.9469,-6.9473,-6.9476,-6.9478,0,-6.9012,-6.8997,-6.9055,-6.9109,-6.9155,-6.9195,-6.9229,-6.9267,-6.9228,-6.9277,-6.9346,-6.9384,-6.9457,-6.9519,-6.9566,-6.9574,-6.952,-6.9513,-6.9539,-6.9553,-6.956,-6.9556,-6.9199,-6.9505,-6.9502,-6.95,-6.9499,-6.9498,-6.9219,-6.9287,-6.931,-6.9375,-6.9397,-6.943,-6.9491,-6.9487,-6.9544,-6.9601,-6.9574,-6.9654,-6.9675,-6.9733,-6.9748,-6.9809,-6.9762,-6.98,-6.981,-6.9819,-6.9832,-6.9551,-6.9818,-6.9817,-6.9816,-6.9815,-6.9815,0,-6.9495,-6.9506,-6.9567,-6.9617,-6.9668,-6.9614,-6.9648,-6.9694,-6.9765,-6.9791,-6.9839,-6.9918,-6.9977,-6.9973,-7.0027,-7.0076,-7.0052,-7.0092,-7.0087,-7.0089,-6.9871,-6.9843,-7.011,-7.011,-7.011,-7.011,-7.011,-7.011,-6.9645,-6.9757,-6.9744,-6.9865,-6.9874,-6.9953,-6.9977,-7.0006,-7.0026,-7.0117,-7.0167,-7.0164,-7.0177,-7.0231,-7.0283,-7.0279,-7.0302,-7.035,-7.0338,-7.0134,-7.0105,-7.0077,-7.005,-7.0356,-7.0356,-7.055,-7.0552,-7.0554]}]]